N11816 LFLB-LFMT

Flight info

Callsign N11816
Flight time 0h 44m
Altitude 25000
Route ROMAM A6 MTL DCT MOLEN DCT NG
Aircraft B350/L-SBGRW/S

Departure

Time 2026-04-23 21:35
Airport Chambéry Aix les Bains airport (LFLB)

Arrival

Time 2026-04-23 22:19
Airport Montpellier-Méditerranée Airport (LFMT)
Time Latitude Longitude Altitude Speed Heading
2026-04-23 21:26 45.63782 5.88303 774 ft 0 kts 86°
2026-04-23 21:30 45.63766 5.88286 774 ft 9 kts 269°
2026-04-23 21:30 45.63700 5.88237 774 ft 16 kts 178°
2026-04-23 21:30 45.63585 5.88245 775 ft 15 kts 175°
2026-04-23 21:30 45.63455 5.88255 775 ft 23 kts 179°
2026-04-23 21:31 45.63313 5.88263 776 ft 11 kts 177°
2026-04-23 21:31 45.63248 5.88268 777 ft 0 kts 178°
2026-04-23 21:31 45.63242 5.88269 777 ft 3 kts 175°
2026-04-23 21:32 45.63185 5.88261 777 ft 12 kts 210°
2026-04-23 21:32 45.63175 5.88252 777 ft 0 kts 220°
2026-04-23 21:33 45.63150 5.88183 777 ft 19 kts 264°
2026-04-23 21:33 45.63166 5.88075 777 ft 0 kts 349°
2026-04-23 21:34 45.63422 5.88053 776 ft 85 kts 359°
2026-04-23 21:34 45.64211 5.87989 1034 ft 126 kts 357°
2026-04-23 21:35 45.65100 5.87978 1671 ft 137 kts
2026-04-23 21:35 45.66135 5.87936 2151 ft 161 kts 356°
2026-04-23 21:35 45.67291 5.87784 2690 ft 177 kts 357°
2026-04-23 21:35 45.68564 5.87649 3222 ft 191 kts 358°
2026-04-23 21:36 45.71355 5.87398 4260 ft 209 kts 358°
2026-04-23 21:36 45.72815 5.87274 4761 ft 212 kts 358°
2026-04-23 21:36 45.74280 5.87049 5251 ft 214 kts 345°
2026-04-23 21:37 45.75489 5.85888 5733 ft 217 kts 310°
2026-04-23 21:37 45.76011 5.83885 6235 ft 218 kts 274°
2026-04-23 21:37 45.75619 5.81825 6719 ft 218 kts 238°
2026-04-23 21:37 45.74660 5.80188 7212 ft 217 kts 226°
2026-04-23 21:38 45.73577 5.78653 7654 ft 219 kts 224°
2026-04-23 21:38 45.72499 5.77118 8056 ft 221 kts 225°
2026-04-23 21:38 45.71418 5.75538 8452 ft 223 kts 226°
2026-04-23 21:38 45.70346 5.73945 8841 ft 225 kts 226°
2026-04-23 21:39 45.69273 5.72336 9199 ft 227 kts 226°
2026-04-23 21:39 45.68182 5.70692 9573 ft 228 kts 226°
2026-04-23 21:39 45.67227 5.68885 9914 ft 230 kts 243°
2026-04-23 21:39 45.66756 5.66728 10247 ft 231 kts 264°
2026-04-23 21:40 45.66851 5.64434 10552 ft 232 kts 281°
2026-04-23 21:40 45.67151 5.62159 10865 ft 235 kts 282°
2026-04-23 21:40 45.67456 5.59864 11172 ft 237 kts 282°
2026-04-23 21:40 45.67773 5.57548 11486 ft 239 kts 283°
2026-04-23 21:41 45.68103 5.55238 11760 ft 240 kts 283°
2026-04-23 21:41 45.68439 5.52881 12046 ft 242 kts 283°
2026-04-23 21:41 45.68771 5.50535 12317 ft 244 kts 283°
2026-04-23 21:41 45.69106 5.48165 12594 ft 245 kts 283°
2026-04-23 21:42 45.69442 5.45783 12833 ft 246 kts 283°
2026-04-23 21:42 45.69784 5.43353 13070 ft 248 kts 282°
2026-04-23 21:42 45.70123 5.40941 13289 ft 250 kts 282°
2026-04-23 21:42 45.70465 5.38500 13492 ft 252 kts 283°
2026-04-23 21:43 45.70810 5.36032 13701 ft 254 kts 283°
2026-04-23 21:43 45.71152 5.33581 13897 ft 254 kts 282°
2026-04-23 21:43 45.71418 5.31049 14111 ft 255 kts 271°
2026-04-23 21:43 45.71214 5.28552 14325 ft 254 kts 253°
2026-04-23 21:44 45.70503 5.26253 14506 ft 252 kts 235°
2026-04-23 21:44 45.69357 5.24381 14697 ft 250 kts 217°
2026-04-23 21:44 45.67898 5.23092 14886 ft 246 kts 199°
2026-04-23 21:44 45.66280 5.22466 15073 ft 242 kts 184°
2026-04-23 21:45 45.64597 5.22252 15275 ft 241 kts 180°
2026-04-23 21:45 45.62925 5.22079 15467 ft 241 kts 180°
2026-04-23 21:45 45.61251 5.21901 15652 ft 242 kts 181°
2026-04-23 21:45 45.59571 5.21720 15820 ft 243 kts 181°
2026-04-23 21:46 45.57885 5.21537 15976 ft 244 kts 181°
2026-04-23 21:46 45.56197 5.21353 16192 ft 242 kts 181°
2026-04-23 21:46 45.54537 5.21170 16546 ft 235 kts 181°
2026-04-23 21:46 45.52943 5.20994 16929 ft 226 kts 181°
2026-04-23 21:47 45.51408 5.20826 17314 ft 218 kts 181°
2026-04-23 21:47 45.49947 5.20665 17703 ft 209 kts 181°
2026-04-23 21:47 45.48520 5.20509 18090 ft 201 kts 181°
2026-04-23 21:47 45.47166 5.20360 18468 ft 192 kts 180°
2026-04-23 21:48 45.45874 5.20219 18835 ft 183 kts 180°
2026-04-23 21:48 45.44630 5.20082 19213 ft 173 kts 179°
2026-04-23 21:48 45.43474 5.19956 19577 ft 162 kts 178°
2026-04-23 21:48 45.42404 5.19838 19926 ft 150 kts 178°
2026-04-23 21:49 45.41401 5.19728 20263 ft 136 kts 177°
2026-04-23 21:49 45.40516 5.19616 20532 ft 123 kts 181°
2026-04-23 21:49 45.39605 5.19266 20350 ft 150 kts 188°
2026-04-23 21:49 45.38577 5.19072 20464 ft 145 kts 170°
2026-04-23 21:50 45.37560 5.19171 20632 ft 151 kts 173°
2026-04-23 21:50 45.36499 5.19164 20962 ft 155 kts 176°
2026-04-23 21:50 45.35432 5.19087 21369 ft 153 kts 178°
2026-04-23 21:50 45.34392 5.18974 21758 ft 151 kts 178°
2026-04-23 21:51 45.33350 5.18861 22117 ft 150 kts 178°
2026-04-23 21:51 45.32321 5.18750 22445 ft 149 kts 177°
2026-04-23 21:51 45.31285 5.18637 22772 ft 149 kts 176°
2026-04-23 21:51 45.30253 5.18526 23067 ft 150 kts 177°
2026-04-23 21:52 45.29212 5.18412 23363 ft 151 kts 177°
2026-04-23 21:52 45.28164 5.18299 23654 ft 151 kts 177°
2026-04-23 21:52 45.27112 5.18184 23929 ft 153 kts 177°
2026-04-23 21:52 45.26052 5.18069 24204 ft 154 kts 178°
2026-04-23 21:53 45.24985 5.17953 24460 ft 155 kts 178°
2026-04-23 21:53 45.23894 5.17835 24727 ft 156 kts 178°
2026-04-23 21:53 45.22809 5.17716 24984 ft 157 kts 178°
2026-04-23 21:53 45.21711 5.17598 25179 ft 163 kts 178°
2026-04-23 21:54 45.20529 5.17474 25210 ft 179 kts 179°
2026-04-23 21:54 45.19228 5.17335 25217 ft 196 kts 179°
2026-04-23 21:54 45.17818 5.17182 25213 ft 212 kts 180°
2026-04-23 21:54 45.16302 5.17017 25206 ft 227 kts 180°
2026-04-23 21:55 45.14666 5.16838 25197 ft 241 kts 181°
2026-04-23 21:55 45.12956 5.16652 25195 ft 253 kts 181°
2026-04-23 21:55 45.11167 5.16414 25195 ft 265 kts 185°
2026-04-23 21:55 45.09353 5.15694 25194 ft 279 kts 200°
2026-04-23 21:56 45.07581 5.14386 25192 ft 289 kts 204°
2026-04-23 21:56 45.05779 5.13106 25183 ft 296 kts 202°
2026-04-23 21:56 45.03909 5.11827 25187 ft 302 kts 202°
2026-04-23 21:56 45.01974 5.10498 25184 ft 311 kts 202°
2026-04-23 21:57 45.00024 5.09150 25181 ft 318 kts 203°
2026-04-23 21:57 44.98031 5.07766 25177 ft 324 kts 203°
2026-04-23 21:57 44.95980 5.06339 25173 ft 329 kts 203°
2026-04-23 21:57 44.93927 5.04909 25169 ft 333 kts 203°
2026-04-23 21:58 44.91835 5.03451 25168 ft 336 kts 203°
2026-04-23 21:58 44.89724 5.01979 25165 ft 338 kts 203°
2026-04-23 21:58 44.87603 5.00502 25165 ft 340 kts 203°
2026-04-23 21:58 44.85477 4.99022 25167 ft 341 kts 203°
2026-04-23 21:59 44.83338 4.97534 25169 ft 343 kts 203°
2026-04-23 21:59 44.81217 4.96060 25160 ft 344 kts 203°
2026-04-23 21:59 44.79074 4.94571 25167 ft 346 kts 203°
2026-04-23 22:00 44.74747 4.91570 25167 ft 348 kts 203°
2026-04-23 22:00 44.72574 4.90065 25164 ft 349 kts 202°
2026-04-23 22:00 44.70399 4.88537 25167 ft 351 kts 203°
2026-04-23 22:00 44.68200 4.86977 25155 ft 353 kts 204°
2026-04-23 22:01 44.65994 4.85414 25145 ft 353 kts 206°
2026-04-23 22:01 44.63834 4.83882 24931 ft 348 kts 205°
2026-04-23 22:01 44.61665 4.82347 24557 ft 348 kts 204°
2026-04-23 22:01 44.59522 4.80834 24144 ft 349 kts 205°
2026-04-23 22:02 44.57361 4.79316 23745 ft 351 kts 207°
2026-04-23 22:02 44.55145 4.77869 23349 ft 351 kts 206°
2026-04-23 22:02 44.52894 4.76558 22951 ft 352 kts 204°
2026-04-23 22:02 44.50599 4.75323 22555 ft 351 kts 203°
2026-04-23 22:03 44.48330 4.74112 22160 ft 350 kts 204°
2026-04-23 22:03 44.46051 4.72894 21756 ft 349 kts 204°
2026-04-23 22:03 44.43786 4.71681 21356 ft 348 kts 204°
2026-04-23 22:03 44.41539 4.70479 20959 ft 346 kts 204°
2026-04-23 22:04 44.39296 4.69277 20559 ft 344 kts 204°
2026-04-23 22:04 44.37066 4.68083 20161 ft 343 kts 203°
2026-04-23 22:04 44.34874 4.66911 19769 ft 341 kts 203°
2026-04-23 22:04 44.32650 4.65721 19366 ft 340 kts 203°
2026-04-23 22:05 44.30460 4.64551 18973 ft 338 kts 203°
2026-04-23 22:05 44.28264 4.63378 18572 ft 336 kts 202°
2026-04-23 22:05 44.26123 4.62233 18162 ft 326 kts 203°
2026-04-23 22:05 44.24039 4.61120 17755 ft 317 kts 202°
2026-04-23 22:06 44.22000 4.60031 17349 ft 310 kts 202°
2026-04-23 22:06 44.20000 4.58964 16942 ft 304 kts 202°
2026-04-23 22:06 44.18071 4.57936 16547 ft 299 kts 202°
2026-04-23 22:06 44.16125 4.56901 16145 ft 295 kts 202°
2026-04-23 22:07 44.14221 4.55888 15749 ft 292 kts 202°
2026-04-23 22:07 44.12333 4.54885 15351 ft 289 kts 201°
2026-04-23 22:07 44.10482 4.53902 14961 ft 286 kts 201°
2026-04-23 22:07 44.08624 4.52916 14561 ft 283 kts 201°
2026-04-23 22:08 44.06797 4.51934 14168 ft 280 kts 203°
2026-04-23 22:08 44.05112 4.50660 13776 ft 277 kts 214°
2026-04-23 22:08 44.03603 4.49033 13388 ft 275 kts 220°
2026-04-23 22:08 44.02146 4.47321 12995 ft 273 kts 221°
2026-04-23 22:09 44.00718 4.45626 12601 ft 272 kts 220°
2026-04-23 22:09 43.99271 4.43913 12201 ft 271 kts 220°
2026-04-23 22:09 43.97855 4.42240 11816 ft 270 kts 220°
2026-04-23 22:09 43.96420 4.40548 11416 ft 270 kts 220°
2026-04-23 22:10 43.94987 4.38861 11014 ft 269 kts 219°
2026-04-23 22:10 43.93565 4.37189 10625 ft 269 kts 219°
2026-04-23 22:10 43.92151 4.35528 10241 ft 268 kts 219°
2026-04-23 22:10 43.90725 4.33853 9836 ft 267 kts 218°
2026-04-23 22:11 43.89366 4.32259 9449 ft 267 kts 218°
2026-04-23 22:11 43.87962 4.30614 9061 ft 266 kts 218°
2026-04-23 22:11 43.86539 4.28948 8659 ft 265 kts 218°
2026-04-23 22:11 43.85146 4.27318 8268 ft 265 kts 218°
2026-04-23 22:12 43.83738 4.25670 7873 ft 264 kts 218°
2026-04-23 22:12 43.82343 4.24040 7483 ft 263 kts 218°
2026-04-23 22:12 43.80943 4.22405 7080 ft 262 kts 218°
2026-04-23 22:12 43.79565 4.20796 6687 ft 261 kts 217°
2026-04-23 22:13 43.78171 4.19173 6284 ft 260 kts 217°
2026-04-23 22:13 43.76619 4.17929 5872 ft 257 kts 203°
2026-04-23 22:13 43.75015 4.16894 5477 ft 257 kts 202°
2026-04-23 22:13 43.73397 4.15855 5074 ft 254 kts 202°
2026-04-23 22:14 43.71821 4.14840 4653 ft 245 kts 202°
2026-04-23 22:14 43.70313 4.13869 4240 ft 238 kts 202°
2026-04-23 22:14 43.68828 4.12912 3826 ft 233 kts 202°
2026-04-23 22:14 43.67369 4.11974 3415 ft 230 kts 202°
2026-04-23 22:15 43.65920 4.11053 3004 ft 227 kts 202°
2026-04-23 22:15 43.64506 4.10166 2601 ft 225 kts 202°
2026-04-23 22:15 43.63075 4.09288 2195 ft 224 kts 203°
2026-04-23 22:15 43.61685 4.08447 2010 ft 212 kts 202°
2026-04-23 22:16 43.60375 4.07651 1981 ft 196 kts 203°
2026-04-23 22:16 43.59156 4.06898 1799 ft 190 kts 203°
2026-04-23 22:16 43.58058 4.06191 1973 ft 159 kts 205°
2026-04-23 22:16 43.57097 4.05392 1682 ft 169 kts 212°
2026-04-23 22:17 43.56095 4.04464 1475 ft 173 kts 212°
2026-04-23 22:17 43.55364 4.03326 1571 ft 148 kts 256°
2026-04-23 22:17 43.55448 4.01863 1056 ft 162 kts 292°
2026-04-23 22:17 43.56028 4.00574 711 ft 155 kts 309°
2026-04-23 22:18 43.56667 3.99413 371 ft 144 kts 307°
2026-04-23 22:18 43.57209 3.98358 104 ft 126 kts 306°
2026-04-23 22:18 43.57669 3.97450 12 ft 103 kts 306°
2026-04-23 22:18 43.57997 3.96799 11 ft 61 kts 301°
2026-04-23 22:19 43.58221 3.96356 13 ft 51 kts 303°
2026-04-23 22:19 43.58307 3.96076 15 ft 23 kts 243°
2026-04-23 22:19 43.58271 3.95975 15 ft 0 kts 246°
2026-04-23 22:19 43.58256 3.95929 15 ft 16 kts 245°
2026-04-23 22:20 43.58315 3.95727 16 ft 20 kts 249°
2026-04-23 22:20 43.58245 3.95648 16 ft 19 kts 218°
2026-04-23 22:20 43.58141 3.95552 16 ft 17 kts 218°
2026-04-23 22:20 43.58115 3.95528 16 ft 0 kts 211°